Regional Weather Roundup
Issued by NWS Charleston, SC

Current Version | Previous Version | Text Only | Print | Product List | Glossary Off
Versions: 1 2 3 4 5 6 7 8 9 10 11 12 13 14 15 16 17 18 19 20 21 22 23 24 25 26 27 28 29 30 31 32 33 34 35 36 37 38 39 40 41 42 43 44 45 46 47 48 49 50

000
ASUS42 KCHS 160610
RWRCHS
REGIONAL WEATHER ROUNDUP
NATIONAL WEATHER SERVICE CHARLESTON SC
200 AM EDT TUE SEP 16 2014

NOTE: "FAIR" INDICATES FEW OR NO CLOUDS BELOW 12,000 FEET WITH NO
SIGNIFICANT WEATHER AND/OR OBSTRUCTIONS TO VISIBILITY.

NOT ALL STATIONS ARE QUALITY CONTROLLED BY THE NATIONAL
WEATHER SERVICE. USE DATA WITH CAUTION...ESPECIALLY
DEWPOINT OBSERVATIONS.

SCZ027-030-031-034>040-042>050-160700-
...SOUTH CAROLINA...

CITY           SKY/WX    TMP DP  RH WIND       PRES   REMARKS
N CHARLESTON   FOG       75  73  94 N5        30.08F VSB 1/2
6HR MIN TEMP:  76; 6HR MAX TEMP:  78; 6HR PCP:  0.03;

WATERFRONT PRK   N/A     81 N/A N/A CALM        N/A
FORT JOHNSON   NOT AVBL
MOUNT PLEASANT FOG       75  75 100 CALM      30.08S VSB 1/4
JOHNS ISLAND   FOG       75  75 100 CALM      30.08S VSB 0
PINOPOLIS        N/A     77  73  88 W3        30.00F
MONCKS CORNER  NOT AVBL
SUMMERVILLE    MOCLDY    72  72 100 CALM      30.08F FOG
BEAUFORT MCAS  CLOUDY    75  73  93 CALM      30.07F
6HR MIN TEMP:  75; 6HR MAX TEMP:  79;

BEAUFORT ARPT  FAIR      75  75 100 CALM      30.07F
HILTON HEAD IS CLOUDY    75  75 100 CALM      30.08F FOG
GEORGETOWN     NOT AVBL
WALTERBORO     CLOUDY    73 N/A N/A CALM      30.08F
ORANGEBURG     CLOUDY    74  71  91 NW3       30.08F
6HR MIN TEMP:  73; 6HR MAX TEMP:  76; 6HR PCP: TRACE;

BARNWELL       FAIR      73  73 100 CALM      30.08F FOG
AIKEN          CLOUDY    72  72 100 CALM      30.13F
MANNING        MOCLDY    72 N/A N/A CALM      30.08F
KINGSTREE      NOT AVBL
COLUMBIA       LGT RAIN  74  71  91 CALM      30.09F FOG
6HR MIN TEMP:  74; 6HR MAX TEMP:  75; 6HR PCP:  0.01;

SUMTER         MOCLDY    73  69  89 NW3       30.08S
6HR MIN TEMP:  73; 6HR MAX TEMP:  75;

FLORENCE       CLOUDY    73  70  90 CALM      30.09S
6HR MIN TEMP:  73; 6HR MAX TEMP:  75;

MYRTLE BEACH   MOCLDY    73  68  83 N5        30.08F
N MYRTLE BEACH CLOUDY    72  68  87 CALM      30.08F
6HR MIN TEMP:  71; 6HR MAX TEMP:  73;


$$

GAZ063-065-086>088-099>101-113>116-118-119-134-136>141-150-160700-
...GEORGIA...

CITY           SKY/WX    TMP DP  RH WIND       PRES   REMARKS
SAVANNAH ARPT  CLOUDY    76  72  87 CALM      30.07F
6HR MIN TEMP:  75; 6HR MAX TEMP:  77;

HUNTER AAF     CLOUDY    75  75 100 SW2       30.05F FOG
FORT STEWART   CLOUDY    73  73 100 CALM      30.06F
6HR MIN TEMP:  74; 6HR MAX TEMP:  76;

STATESBORO     NOT AVBL
SYLVANIA       CLOUDY    75  74  99 CALM      30.09F FOG
CLAXTON        NOT AVBL
THOMSON        CLOUDY    74  74 100 CALM      30.14F
AUGUSTA-BUSH   CLOUDY    73  73 100 CALM      30.08F FOG
6HR MIN TEMP:  73; 6HR MAX TEMP:  75; 6HR PCP:  0.15;

AUGUSTA-DANIEL TSTM      75  73  93 S5        30.11S
SWAINSBORO     FAIR      73  73 100 CALM      30.10F
VIDALIA        CLOUDY    73  73 100 CALM      30.09F
ALMA           MOCLDY    73  71  93 CALM      30.10R
6HR MIN TEMP:  73; 6HR MAX TEMP:  75; 6HR PCP: TRACE;

WAYCROSS       CLOUDY    76  76  99 CALM      30.09S
JESUP            N/A     73  73 100 SW3       30.08F
BRUNSWICK      CLOUDY    75  72  88 CALM      30.08S
SAINT SIMONS   CLOUDY    76  74  93 SW6       30.07F
6HR MIN TEMP:  75; 6HR MAX TEMP:  81; 6HR PCP:  0.01;


$$

SCZ027-028-034-036>038-045-046-048>050-GAZ119-141-160700-
...LAKE AND SUPPLEMENTAL COASTAL OBSERVATIONS...

STATION/POSITION TIME  TEMP    WIND        PRES    WAVE   SWELL
                       AIR SEA DIR/SP/G            HT/PER HT/PER/DIR
                 (UTC) (F)     (DEG/KT/KT) (MB)    (FT/S) (FT/S/D)
UPR LAKE MARION  NOT AVBL
WINYAH BAY       0500   73     330/  1     1019.0S
LAKE MURRAY      0500   75     190/  5/  7 1019.0S
ACE BASIN NERRS  0500   73        CALM     1019.0S
FORT PULASKI     0600   79                   N/A
SAPELO ISLAND    0500   76        CALM     1019.0F

$$

ANZ835-935-AMZ111-154-330-350-352-354-374-450-454-472-160700-
...C-MAN AND BUOY OBSERVATIONS...

STATION/POSITION TIME  TEMP    WIND        PRES    WAVE   SWELL
                       AIR SEA DIR/SP/G            HT/PER HT/PER/DIR
                 (UTC) (F)     (DEG/KT/KT) (MB)    (FT/S) (FT/S/D)
FOLLY BEACH CMAN 0500   76      CALM  /  1 1019.2F
BUOY 41004       0600   81 83  250/  2/  4 1018.0F   2/ 8   2/ 8
BUOY 41008       0600   81 84  290/  4/  6 1018.0F   2/ 8   2/100/ 8
5E ST. MARYS GA  0600      84                N/A     2/13
FRYING PAN BUOY  NOT AVBL
BUOY 41025       0600   74     340/  2/  2 1018.5F   3/ 8   3/ 40/ 8
CAPE LOOKOUT NC  0500   75      70/  2/  2 1019.1F
BUOY 41002       0548   80 83  280/  8/  8 1019.1F   3/ 8   3/ 40/ 8
BUOY 41010       0600   83 85  220/  6/  8 1019.6F   2/ 9   2/360/ 9
BUOY 41012       NOT AVBL
ST AUGUSTINE FL  0600   76     230/  4/  5 1019.9F
CAPERS NEARSHORE 0500   79     310/  4/  4   N/A
FRIPP NEARSHORE  NOT AVBL


$$


USA.gov is the U.S. government's official web portal to all federal, state and local government web resources and services.